Phillips, WI

12:36 PM CST on February 07, 2016 (GMT -0600)
Price County

Weather History for KPBH - April, 2013

Change the Weather History Date:

Monday, April 22, 2013

  Actual Average Record
Temperature  
Mean Temperature 38 °F -  
Max Temperature 42 °F 55 °F 78 °F (2007)
Min Temperature 33 °F 31 °F 24 °F (2002)
Degree Days  
Heating Degree Days 28    
Moisture  
Dew Point 37 °F    
Average Humidity 93    
Maximum Humidity 100    
Minimum Humidity 75    
Precipitation  
Precipitation 0.00 in - - ()
Sea Level Pressure  
Sea Level Pressure 30.13 in    
Wind  
Wind Speed 7 mph (NNE)    
Max Wind Speed 18 mph    
Max Gust Speed 24 mph    
Visibility 5 miles    
Events Rain , Snow    
Averages and records for this station are not official NWS values.
T = Trace of Precipitation, MM = Missing Value Source: NWS Daily Summary

Daily Weather History Graph

Daily Weather History Graph

Search for Another Location

Airport or City:

Trip Planner

Search our weather history database for the weather conditions in past years. The results will help you decide how hot, cold, wet, or windy it might be!

Date:

Astronomy

Apr. 22, 2013 Rise Set
Actual Time 6:03 AM CDT 7:57 PM CDT
Civil Twilight 5:31 AM CDT 8:29 PM CDT
Nautical Twilight 4:52 AM CDT 9:08 PM CDT
Astronomical Twilight 4:09 AM CDT 9:51 PM CDT
Moon 4:38 PM CDT (4/22) 4:08 AM CDT (4/22)
Length of Visible Light 14h 58m
Length of Day
13h 54m
Waxing Gibbous, 88% of the Moon is Illuminated
Apr 22
Waxing Gibbous
Apr 25
Full
May 2
Last Quarter
May 9
New
May 17
First Quarter

Hourly Weather History & Observations

Time (CDT) Temp. Windchill Dew Point Humidity Pressure Visibility Wind Dir Wind Speed Gust Speed Precip Events Conditions
12:15 AM 39.2 °F 32.0 °F 37.4 °F 93% 30.10 in 7.0 mi SSE 11.5 mph - N/A   Overcast
12:35 AM 39.2 °F 32.0 °F 37.4 °F 93% 30.11 in 5.0 mi South 11.5 mph 19.6 mph N/A   Light Drizzle
12:55 AM 39.2 °F 32.5 °F 37.4 °F 93% 30.11 in 5.0 mi South 10.4 mph - N/A   Drizzle
1:15 AM 39.2 °F 33.0 °F 39.2 °F 100% 30.10 in 5.0 mi South 9.2 mph 16.1 mph N/A   Light Drizzle
1:35 AM 39.2 °F 33.0 °F 39.2 °F 100% 30.10 in 4.0 mi South 9.2 mph - N/A Rain Light Rain
1:55 AM 39.2 °F 33.6 °F 39.2 °F 100% 30.10 in 4.0 mi SSW 8.1 mph - N/A   Overcast
2:15 AM 41.0 °F 37.1 °F 39.2 °F 93% 30.10 in 2.5 mi SSW 5.8 mph - N/A Rain Light Rain
2:35 AM 41.0 °F 36.4 °F 39.2 °F 93% 30.11 in 2.0 mi SSW 6.9 mph - N/A   Overcast
2:55 AM 42.8 °F 39.3 °F 41.0 °F 93% 30.11 in 2.0 mi SW 5.8 mph - N/A Rain Light Rain
3:15 AM 42.8 °F 40.1 °F 41.0 °F 93% 30.11 in 1.8 mi SSW 4.6 mph - N/A   Overcast
3:35 AM 42.8 °F 40.1 °F 42.8 °F 100% 30.11 in 1.8 mi SSW 4.6 mph - N/A Rain Light Rain
3:55 AM 42.8 °F 41.1 °F 42.8 °F 100% 30.11 in 2.5 mi SSW 3.5 mph - N/A   Light Drizzle
4:15 AM 42.8 °F 41.1 °F 42.8 °F 100% 30.11 in 2.0 mi SW 3.5 mph - N/A   Overcast
4:35 AM 42.8 °F 41.1 °F 42.8 °F 100% 30.12 in 1.5 mi WSW 3.5 mph - N/A   Light Drizzle
4:55 AM 42.8 °F 41.1 °F 42.8 °F 100% 30.13 in 1.8 mi WSW 3.5 mph - N/A   Light Drizzle
5:15 AM 42.8 °F - 42.8 °F 100% 30.13 in 2.0 mi Calm Calm - N/A   Overcast
5:35 AM 42.8 °F - 42.8 °F 100% 30.13 in 3.0 mi Calm Calm - N/A   Light Drizzle
5:55 AM 42.8 °F - 41.0 °F 93% 30.14 in 2.0 mi Calm Calm - N/A   Overcast
6:15 AM 41.0 °F - 41.0 °F 100% 30.15 in 2.0 mi Calm Calm - N/A   Overcast
6:35 AM 41.0 °F 39.0 °F 39.2 °F 93% 30.16 in 1.5 mi NW 3.5 mph - N/A   Overcast
6:55 AM 39.2 °F 35.9 °F 39.2 °F 100% 30.16 in 1.2 mi NW 4.6 mph - N/A   Overcast
7:15 AM 39.2 °F - 39.2 °F 100% 30.16 in 1.2 mi Calm Calm - N/A   Overcast
7:35 AM 39.2 °F 35.9 °F 39.2 °F 100% 30.18 in 1.5 mi North 4.6 mph - N/A   Overcast
7:55 AM 39.2 °F 35.9 °F 37.4 °F 93% 30.18 in 1.5 mi NNW 4.6 mph - N/A   Overcast
8:15 AM 37.4 °F 31.4 °F 37.4 °F 100% 30.19 in 1.2 mi NNW 8.1 mph - N/A   Overcast
8:35 AM 37.4 °F 32.8 °F 37.4 °F 100% 30.19 in 1.2 mi NNW 5.8 mph - N/A   Overcast
8:55 AM 37.4 °F 33.8 °F 35.6 °F 93% 30.19 in 1.5 mi NNW 4.6 mph - N/A   Overcast
9:15 AM 37.4 °F 32.1 °F 35.6 °F 93% 30.19 in 2.5 mi North 6.9 mph - N/A   Overcast
9:35 AM 35.6 °F 30.7 °F 35.6 °F 100% 30.19 in 10.0 mi North 5.8 mph - N/A   Overcast
9:55 AM 37.4 °F 31.4 °F 35.6 °F 93% 30.19 in 10.0 mi NNE 8.1 mph - N/A   Overcast
10:15 AM 37.4 °F 32.1 °F 37.4 °F 100% 30.18 in 10.0 mi NNE 6.9 mph - N/A   Overcast
10:35 AM 37.4 °F 32.8 °F 37.4 °F 100% 30.18 in 10.0 mi North 5.8 mph - N/A   Overcast
10:55 AM 37.4 °F 32.8 °F 37.4 °F 100% 30.19 in 10.0 mi North 5.8 mph - N/A   Overcast
11:15 AM 37.4 °F 32.1 °F 37.4 °F 100% 30.19 in 10.0 mi NNE 6.9 mph - N/A   Overcast
11:35 AM 39.2 °F 34.2 °F 32.0 °F 75% 30.18 in 10.0 mi North 6.9 mph - N/A   Overcast
11:55 AM 39.2 °F 35.0 °F 37.4 °F 93% 30.19 in 10.0 mi NNE 5.8 mph - N/A   Overcast
12:15 PM 41.0 °F 35.8 °F 37.4 °F 87% 30.19 in 10.0 mi NE 8.1 mph - N/A   Overcast
12:35 PM 41.0 °F 39.0 °F 37.4 °F 87% 30.21 in 10.0 mi North 3.5 mph - N/A   Overcast
12:55 PM 41.0 °F 36.4 °F 37.4 °F 87% 30.19 in 10.0 mi North 6.9 mph - N/A   Overcast
1:15 PM 41.0 °F 35.2 °F 37.4 °F 87% 30.18 in 10.0 mi North 9.2 mph - N/A   Overcast
1:35 PM 41.0 °F 36.4 °F 37.4 °F 87% 30.18 in 10.0 mi North 6.9 mph - N/A   Overcast
1:55 PM 41.0 °F 39.0 °F 37.4 °F 87% 30.17 in 10.0 mi ENE 3.5 mph - N/A   Overcast
2:15 PM 42.8 °F 38.6 °F 37.4 °F 81% 30.16 in 10.0 mi NE 6.9 mph - N/A   Overcast
2:35 PM 42.8 °F 38.6 °F 37.4 °F 81% 30.16 in 10.0 mi NE 6.9 mph - N/A   Overcast
2:55 PM 42.8 °F 38.6 °F 37.4 °F 81% 30.14 in 10.0 mi NE 6.9 mph - N/A   Overcast
3:15 PM 42.8 °F 38.6 °F 37.4 °F 81% 30.13 in 10.0 mi East 6.9 mph - N/A   Overcast
3:35 PM 42.8 °F 38.0 °F 37.4 °F 81% 30.11 in 10.0 mi ENE 8.1 mph - N/A   Overcast
3:55 PM 42.8 °F 38.6 °F 37.4 °F 81% 30.12 in 10.0 mi East 6.9 mph - N/A   Overcast
4:15 PM 42.8 °F 39.3 °F 37.4 °F 81% 30.10 in 10.0 mi ENE 5.8 mph - N/A   Overcast
4:35 PM 42.8 °F 40.1 °F 37.4 °F 81% 30.10 in 10.0 mi East 4.6 mph - N/A   Overcast
4:55 PM 41.0 °F 38.0 °F 37.4 °F 87% 30.09 in 5.0 mi East 4.6 mph - N/A Rain Rain
5:15 PM 41.0 °F 39.0 °F 37.4 °F 87% 30.10 in 5.0 mi East 3.5 mph - N/A Rain Rain
5:35 PM 41.0 °F 37.1 °F 39.2 °F 93% 30.10 in 5.0 mi NNE 5.8 mph - N/A Rain Rain
5:55 PM 39.2 °F 35.0 °F 37.4 °F 93% 30.10 in 2.0 mi NNW 5.8 mph - N/A   Overcast
6:15 PM 39.2 °F 37.0 °F 37.4 °F 93% 30.10 in 1.8 mi North 3.5 mph - N/A Rain Rain
6:35 PM 39.2 °F 35.9 °F 37.4 °F 93% 30.10 in 2.5 mi North 4.6 mph - N/A Rain Rain
6:55 PM 35.6 °F 28.0 °F 35.6 °F 100% 30.10 in 1.2 mi North 10.4 mph 16.1 mph N/A Snow Snow
7:15 PM 35.6 °F 29.2 °F 33.8 °F 93% 30.10 in 0.8 mi North 8.1 mph - N/A Snow Light Snow
7:35 PM 35.6 °F 28.0 °F 33.8 °F 93% 30.10 in 0.5 mi NNE 10.4 mph - N/A Snow Snow
7:55 PM 35.6 °F 28.0 °F 33.8 °F 93% 30.10 in 1.2 mi North 10.4 mph - N/A Snow Light Snow
8:15 PM 33.8 °F 25.3 °F 33.8 °F 100% 30.10 in 1.2 mi North 11.5 mph 18.4 mph N/A Snow Light Snow
8:35 PM 33.8 °F 26.4 °F 33.8 °F 100% 30.10 in 1.0 mi North 9.2 mph - N/A Snow Snow
8:55 PM 33.8 °F 25.3 °F 32.0 °F 93% 30.10 in 1.0 mi NNE 11.5 mph - N/A Snow Snow
9:15 PM 33.8 °F 26.4 °F 32.0 °F 93% 30.10 in 1.5 mi NNE 9.2 mph 18.4 mph N/A Snow Light Snow
9:35 PM 33.8 °F 24.8 °F 32.0 °F 93% 30.09 in 1.8 mi NNE 12.7 mph 20.7 mph N/A Snow Light Snow
9:55 PM 33.8 °F 26.4 °F 32.0 °F 93% 30.08 in 2.5 mi NE 9.2 mph - N/A Snow Light Snow
10:15 PM 33.8 °F 22.8 °F 32.0 °F 93% 30.06 in 5.0 mi NNE 18.4 mph 24.2 mph N/A Snow Light Snow
10:35 PM 33.8 °F 25.8 °F 32.0 °F 93% 30.07 in 4.0 mi NNE 10.4 mph - N/A   Overcast
10:55 PM 33.8 °F 24.3 °F 32.0 °F 93% 30.05 in 5.0 mi NNE 13.8 mph - N/A Snow Light Snow
11:15 PM 33.8 °F 27.0 °F 32.0 °F 93% 30.06 in 4.0 mi NNE 8.1 mph - N/A   Overcast
11:35 PM 33.8 °F 27.0 °F 32.0 °F 93% 30.04 in 7.0 mi NE 8.1 mph - N/A   Overcast
11:55 PM 33.8 °F 27.0 °F 32.0 °F 93% 30.03 in 4.0 mi NE 8.1 mph - N/A Snow Light Snow